RH
63 63 61 61 62 64 62 63 64 66 69 75 62 55 55 58 73 76 93 55 52 62 64 54 61 67 46 43 42 43 38 40 40 38 30 23 23 21 21 17 18 18 23 41 44
64 64 62 62 63 60 60 60 61 65 66 72 67 58 57 57 60 78 64 63 61 60 65 58 76 66 50 44 40 34 38 31 27 30 30 26 21 22 24 23 21 22 27 51 60
64 64 64 66 61 60 59 57 61 62 65 68 68 62 58 50 70 57 60 69 65 57 54 50 56 64 58 48 40 35 34 28 37 30 29 27 26 25 23 27 19 20 27 44 67
66 66 67 66 64 64 62 62 62 66 68 68 72 65 57 51 85 53 63 67 65 52 51 58 69 73 62 56 39 44 32 32 37 40 39 33 26 28 25 21 23 26 28 27 52
64 58 65 66 67 65 65 63 62 65 66 67 66 68 58 67 63 49 58 48 62 57 59 59 66 69 61 51 47 42 41 35 34 40 40 36 34 28 30 26 26 27 30 26 26
59 58 65 69 69 65 62 63 62 62 66 65 65 68 69 82 37 53 60 48 54 60 62 56 51 52 53 54 48 39 40 37 34 39 39 41 37 37 29 25 26 26 25 22 24
69 70 70 69 62 58 60 61 64 63 61 64 64 60 69 56 52 63 65 54 51 53 65 58 45 54 50 59 45 46 47 38 42 37 35 36 39 41 27 22 24 21 20 24 24
72 72 73 72 58 59 61 65 71 70 66 63 67 62 67 41 48 72 75 58 55 50 58 56 48 48 48 45 50 49 43 51 33 39 40 37 31 30 28 27 28 23 20 22 24
74 72 72 77 64 61 64 68 68 66 63 58 60 66 61 53 72 71 63 57 58 58 64 63 54 54 54 54 57 45 38 40 41 40 34 39 30 27 26 29 28 25 24 24 25
72 73 74 74 77 61 66 70 64 64 60 53 51 73 53 62 65 64 62 63 60 67 85 78 71 67 55 50 50 48 41 44 38 43 47 45 35 34 32 34 31 27 24 23 23
73 74 72 72 76 61 70 61 58 64 64 56 59 64 68 72 55 63 63 82 64 79 79 78 92 81 58 46 42 39 41 37 40 42 44 41 41 36 33 31 31 28 24 24 23
72 73 74 75 79 74 67 64 62 63 64 62 57 55 59 70 77 72 69 90 74 76 73 91 90 50 47 49 51 44 42 40 52 45 43 43 44 35 32 33 32 29 26 25 24
72 75 75 75 75 72 68 72 64 58 65 62 60 68 85 76 70 76 79 81 66 74 83 86 63 47 58 56 53 53 47 53 48 48 44 44 38 37 32 28 30 30 27 26 28
78 77 74 68 68 73 74 75 63 58 89 84 92 80 81 74 82 68 90 85 88 91 85 84 71 55 52 56 44 60 55 54 55 54 46 45 33 37 28 34 33 32 35 35 36
79 76 75 76 73 76 82 68 62 69 95 81 92 71 74 75 73 91 87 94 89 90 92 95 92 72 62 53 47 62 50 52 53 54 57 49 49 31 27 33 34 33 37 40 42
76 77 74 69 70 78 69 65 66 94 95 97 89 86 74 86 78 73 78 61 65 76 78 92 87 92 89 88 59 46 50 54 56 56 83 53 47 26 27 27 33 33 37 41 42
77 78 70 67 67 69 71 74 97 90 96 100 99 76 82 87 79 72 84 72 72 96 99 94 94 86 77 93 79 70 69 92 93 94 66 54 50 26 29 29 30 38 39 41 43
81 73 72 65 77 78 81 86 92 90 100 95 79 74 89 86 84 92 87 70 61 66 95 96 98 78 83 79 87 94 92 73 65 49 41 53 49 28 29 27 29 34 39 41 46
79 70 74 69 73 78 87 99 97 100 99 87 67 71 87 67 76 93 96 69 58 57 75 91 96 57 54 52 53 77 95 48 62 54 58 33 35 28 31 33 32 39 42 44 50
80 73 69 70 73 76 88 96 96 85 67 60 72 67 68 72 69 78 95 62 58 52 49 62 93 62 56 48 50 53 47 73 83 76 57 30 28 24 38 35 34 38 41 43 50
77 72 66 71 81 77 100 100 75 65 62 58 66 65 59 70 67 65 66 61 50 51 46 51 60 81 62 61 57 60 59 57 49 55 42 23 18 23 26 30 35 32 38 46 52
82 88 70 81 93 92 99 84 80 64 53 52 54 61 56 62 64 58 57 56 47 44 48 52 62 86 73 56 52 52 52 43 60 69 64 61 29 29 26 30 32 32 40 46 54
84 79 67 78 92 88 70 67 71 56 53 50 52 51 51 55 60 55 53 53 49 47 48 48 74 90 81 64 60 69 58 52 55 69 88 51 26 33 32 33 28 39 41 49 55
82 89 78 71 76 69 70 68 62 60 53 50 50 46 49 52 51 58 55 59 53 52 62 50 60 76 58 65 69 95 68 60 77 86 52 44 31 32 32 30 38 39 40 54 56
83 90 80 92 79 71 72 70 68 61 56 48 49 46 47 54 56 56 60 58 57 62 52 50 100 90 61 62 69 71 67 66 86 62 84 41 41 27 29 35 38 39 55 59 60
84 86 76 73 75 68 68 68 70 69 70 54 50 54 48 47 44 54 57 55 52 56 54 58 94 87 73 67 68 88 63 62 63 58 56 50 49 31 31 36 41 50 63 64 61
81 81 93 78 70 63 63 65 66 64 69 67 52 53 56 62 59 50 44 44 46 52 56 60 88 86 79 66 71 74 64 60 59 57 52 59 43 35 38 40 48 64 67 64 61
Wind_Speed
19 20 18 18 18 18 17 17 17 16 15 13 12 11 11 13 11 5 9 9 14 11 1 9 9 10 8 9 5 2 10 16 22 20 13 8 11 6 2 7 5 3 3 5 3
19 20 19 17 16 16 16 16 15 14 15 11 12 11 9 11 11 13 8 15 15 14 7 15 16 14 8 9 7 12 14 20 9 10 11 10 11 9 8 9 8 6 2 4 4
20 20 19 19 18 16 16 16 14 15 13 10 11 11 8 8 8 8 19 24 19 17 13 10 14 13 11 8 11 14 15 9 7 8 5 11 10 6 8 9 7 7 2 3 4
20 20 19 17 16 16 15 15 15 13 12 11 11 9 6 4 9 5 8 23 21 19 16 15 15 15 13 14 14 9 13 6 5 4 5 11 7 7 9 2 6 6 2 0 3
22 20 17 18 16 14 15 15 13 12 10 10 9 8 5 8 14 6 5 2 20 20 20 19 21 15 18 15 12 14 6 8 5 6 5 5 8 8 9 6 5 4 5 5 3
22 20 17 16 15 14 12 13 12 10 10 10 8 6 7 13 8 4 2 7 19 24 22 20 19 13 13 11 13 12 5 11 10 6 4 6 7 5 6 7 9 11 12 10 10
23 21 18 14 15 13 12 12 12 8 7 7 7 5 10 14 1 2 2 5 18 23 21 17 14 14 9 7 8 5 14 11 8 9 10 6 14 14 14 14 14 14 11 10 10
23 23 19 15 10 10 10 11 10 9 8 7 5 5 6 7 8 3 0 5 16 18 16 11 14 10 5 5 10 14 6 10 9 15 5 8 14 2 7 9 14 14 13 11 14
26 23 20 12 10 8 9 10 12 12 6 2 3 5 4 6 7 6 6 7 18 17 13 8 17 12 6 13 9 15 10 18 5 9 12 17 8 6 5 6 8 8 8 9 10
25 23 19 15 9 6 8 11 4 2 5 4 1 3 6 7 7 10 6 3 18 18 10 12 9 12 13 15 15 18 15 12 13 6 9 9 14 6 8 7 11 12 13 12 11
25 23 23 13 4 3 2 1 2 4 1 1 2 9 5 7 10 6 6 5 12 14 13 17 7 17 21 17 2 10 15 9 7 5 5 10 11 11 11 13 14 15 15 14 13
24 22 22 11 10 9 1 2 2 4 3 2 4 6 3 4 5 6 4 9 15 19 14 8 13 15 14 13 8 13 13 10 6 3 4 4 9 13 12 13 8 10 11 10 7
22 19 18 12 11 4 4 4 4 2 0 5 4 3 3 6 9 9 1 12 17 15 16 11 12 14 16 14 12 9 11 9 2 5 1 7 7 5 5 8 7 7 4 4 5
21 16 16 1 4 2 4 6 2 1 1 5 7 3 2 2 6 7 1 3 5 9 6 4 2 19 18 16 13 10 3 7 6 4 3 4 2 4 9 9 9 10 9 8 7
20 16 11 13 3 3 4 2 2 2 3 2 3 5 4 4 9 3 1 5 10 12 4 3 3 17 19 18 12 6 7 7 3 2 3 4 4 7 10 9 7 7 6 5 6
19 13 1 4 4 0 4 4 3 4 11 4 5 1 5 1 3 6 3 8 12 15 13 5 4 5 3 8 3 13 10 8 4 1 4 3 5 7 9 8 8 3 4 3 5
17 9 3 1 3 3 3 3 1 8 1 5 3 4 6 5 6 6 5 6 4 7 4 3 4 2 7 10 4 6 8 4 3 4 2 2 4 3 8 6 7 2 2 3 5
14 3 1 0 2 2 1 3 11 4 4 4 3 12 5 3 6 5 2 5 5 8 5 3 4 1 0 2 5 4 3 3 4 5 4 2 6 4 4 5 6 2 2 3 4
9 1 2 3 4 2 1 8 3 2 2 5 6 6 4 6 5 3 4 3 3 4 5 5 4 0 2 5 5 7 4 1 5 2 2 5 4 3 6 12 5 1 1 1 4
2 1 1 2 3 3 2 6 3 3 2 2 3 2 4 3 3 3 1 2 3 3 2 4 6 2 4 3 9 2 8 4 0 4 5 5 4 5 14 13 4 3 4 3 5
1 2 3 3 4 2 5 3 2 0 2 2 3 3 5 4 2 2 3 2 2 5 3 5 3 2 2 4 7 5 4 3 2 2 3 2 3 2 14 15 4 8 5 4 7
3 0 3 4 2 2 2 1 2 2 1 2 3 5 7 3 3 2 3 2 3 4 5 2 5 5 1 2 3 1 2 5 3 5 1 3 1 2 6 6 5 9 6 6 6
4 3 1 3 2 2 1 1 2 3 3 2 2 1 2 4 3 3 2 1 3 2 5 6 3 6 5 5 2 4 5 3 5 2 5 3 3 3 3 4 6 6 6 6 5
3 2 3 4 2 2 1 1 2 1 1 1 3 2 4 2 2 4 4 2 1 1 7 3 3 2 2 3 4 4 9 10 5 4 5 7 2 7 7 7 6 6 7 5 4
4 3 2 2 3 2 1 0 1 1 1 1 3 3 3 3 3 3 3 4 2 4 2 1 3 1 2 4 2 2 6 13 10 8 6 1 7 7 9 9 8 7 4 4 4
3 3 4 2 4 3 1 2 1 1 2 1 3 4 3 3 2 6 6 4 3 4 2 2 3 2 2 1 5 5 10 11 16 17 16 16 19 16 8 3 6 6 4 4 3
3 1 2 3 3 3 2 2 2 2 1 2 4 4 3 2 0 1 2 3 3 7 5 4 6 2 1 1 3 9 17 18 11 10 15 13 11 6 8 6 7 5 2 4 4
Wind_Direction
323 322 319 318 320 317 314 306 303 300 292 274 277 287 301 292 315 290 242 206 215 225 237 174 187 189 191 191 200 200 223 219 215 224 219 183 205 182 130 217 202 177 311 6 352
320 317 315 322 319 311 313 304 306 302 291 285 272 279 300 297 299 263 230 218 209 223 193 176 179 170 188 191 189 204 221 221 225 212 212 184 210 178 184 188 202 186 173 59 118
321 317 324 318 317 317 313 312 306 296 291 280 267 272 289 299 280 248 210 200 209 216 210 185 178 179 185 183 185 208 226 207 205 204 183 188 196 189 202 199 210 201 100 46 143
325 323 323 311 313 311 308 307 302 305 291 282 266 259 274 255 220 144 208 194 196 198 196 190 187 185 189 195 185 204 224 239 164 183 153 176 176 201 226 241 141 126 56 51 194
322 326 322 315 306 308 306 303 301 292 281 274 269 251 234 218 233 141 71 200 206 193 199 191 190 194 196 204 184 216 183 198 202 174 162 155 188 224 237 224 227 245 257 245 229
327 328 323 318 308 302 293 299 300 288 281 271 262 260 225 239 209 217 298 323 196 193 195 194 194 192 200 193 201 196 183 205 201 198 179 206 218 213 227 251 240 239 250 247 255
327 320 314 308 299 308 299 300 302 302 289 280 254 217 233 235 90 170 278 325 185 184 190 195 187 186 157 161 203 145 207 229 207 217 232 221 240 232 246 247 252 245 242 251 252
331 327 317 300 302 304 309 305 297 301 299 272 223 205 249 212 216 35 35 259 181 182 195 186 186 165 183 142 165 196 198 197 212 209 202 199 249 128 212 231 247 249 251 248 256
335 334 329 303 277 290 302 305 306 308 289 252 199 224 236 140 204 173 194 211 171 185 201 154 182 180 143 166 155 188 201 213 192 207 208 212 258 262 228 227 255 258 255 249 257
343 338 333 315 257 259 302 324 4 57 141 150 215 215 236 196 155 133 182 188 165 165 182 194 181 180 174 185 196 188 190 202 210 166 215 210 238 229 217 249 270 273 269 263 257
349 348 343 331 215 194 337 281 195 110 105 353 101 267 31 337 134 141 152 125 142 181 171 195 176 190 185 198 279 168 190 185 204 133 221 231 243 249 257 263 260 264 270 273 274
356 3 2 51 123 93 73 44 31 4 141 14 289 250 344 258 162 148 142 170 182 177 170 167 200 195 173 183 168 177 179 188 121 145 241 232 263 253 258 263 293 292 276 277 294
356 15 23 79 87 62 58 33 343 273 131 47 8 311 202 278 110 160 261 143 173 172 185 181 186 168 178 177 173 180 188 165 137 148 128 294 246 164 95 85 94 71 87 97 73
348 10 21 232 68 349 47 343 125 10 81 5 351 356 274 249 77 80 358 149 37 120 89 155 260 180 183 186 181 169 130 140 135 197 232 311 180 120 140 114 91 78 76 77 63
346 4 59 39 72 38 339 326 313 227 131 316 307 332 262 65 135 74 302 202 156 125 128 80 206 179 182 183 192 103 142 116 106 107 308 184 240 122 163 133 126 77 72 64 39
342 347 307 80 79 112 304 309 258 244 40 30 354 207 101 221 118 118 148 112 134 125 104 87 41 20 80 47 163 132 109 74 60 26 235 166 257 159 173 154 147 98 69 53 23
340 331 3 208 110 177 300 305 271 39 198 4 42 97 82 55 64 51 10 53 118 121 95 63 39 98 109 89 29 98 163 138 178 199 259 128 211 21 142 140 133 69 46 40 12
343 301 162 262 147 260 292 257 57 321 24 278 97 108 78 41 49 40 10 94 51 89 98 88 123 55 18 103 134 141 176 228 185 188 135 160 232 124 154 182 169 323 299 310 6
335 148 223 181 209 241 245 50 60 269 245 134 130 88 71 68 112 101 40 41 62 34 96 138 82 212 73 128 163 152 194 11 96 72 259 171 226 242 147 163 195 163 191 58 14
339 307 189 161 211 204 33 86 100 212 182 313 81 298 121 102 119 107 57 333 86 38 12 127 110 54 139 138 55 280 133 152 206 185 232 180 241 147 168 177 146 45 6 16 -0
318 231 125 323 201 56 69 37 50 307 302 344 108 112 117 131 97 90 119 127 212 124 166 136 101 146 193 222 166 151 188 77 58 299 273 276 134 332 173 183 179 352 358 356 355
320 277 128 175 40 33 54 21 331 336 347 98 102 100 158 145 122 129 142 33 139 157 143 103 105 144 129 62 316 273 203 202 232 175 86 329 77 128 154 181 247 326 351 359 5
344 300 131 260 92 83 119 38 327 12 31 38 87 25 157 152 142 135 127 22 169 194 161 168 134 132 163 189 174 213 187 159 89 41 202 232 118 130 177 209 306 324 334 348 358
323 309 4 58 24 71 46 79 155 173 77 35 109 126 136 115 42 141 129 75 213 85 71 99 118 277 188 83 111 185 192 190 171 191 180 235 321 165 195 313 325 334 331 340 358
8 40 8 349 71 76 174 355 318 195 57 40 134 165 154 137 127 142 142 132 98 122 74 47 108 74 72 88 140 214 201 196 206 211 216 14 237 269 302 304 309 317 322 334 352
18 354 346 299 293 236 123 98 37 123 283 158 178 141 164 157 207 186 165 197 176 166 120 37 114 129 152 166 227 250 233 219 223 234 247 262 280 280 284 308 306 326 336 352 355
11 344 304 298 297 243 124 109 78 321 139 305 155 142 139 98 180 347 158 188 183 176 144 135 141 158 238 34 279 261 230 212 209 210 222 225 234 260 286 309 324 325 354 348 349